Dati Storici

Data ora Umidita' aria (%) Temperatura aria (°C) Rad globale (W/m²) Gonioanemometro (°) Tacoanemometro (m/s) Pioggia (mm)
26-10-2012 22:50 96.1 % 11.998 2.895 356.403 1.198 1
26-10-2012 22:40 96 % 11.933 2.831 18.333 2.245 0
26-10-2012 22:30 96 % 11.835 2.934 340.952 2.019 1
26-10-2012 22:20 95.9 % 11.749 2.895 24.873 2.976 1
26-10-2012 22:10 95.7 % 11.711 2.831 10.46 3.16 1
26-10-2012 22:00 95.6 % 11.66 2.973 24.623 2.048 1
26-10-2012 21:50 95.5 % 11.693 2.821 35.377 1.906 1
26-10-2012 21:40 95.4 % 11.704 3.013 7.403 1.796 1
26-10-2012 21:30 95.4 % 11.763 2.949 337.052 0.94 2
26-10-2012 21:20 95.4 % 11.855 3 333.278 0.795 1
26-10-2012 21:10 95.4 % 11.859 2.813 348.051 1.989 1
26-10-2012 21:00 95.3 % 11.83 2.941 36.682 2.415 0
26-10-2012 20:50 95.3 % 11.822 2.762 346.369 2.296 0
26-10-2012 20:40 95.3 % 11.78 2.967 12.904 1.083 0
26-10-2012 20:30 95.2 % 11.79 2.927 9.421 1.428 0
26-10-2012 20:20 95.1 % 11.853 3.619 36.288 2.956 0
26-10-2012 20:10 95 % 11.878 3.371 352.962 2.13 0
26-10-2012 20:00 94.9 % 11.913 3.435 1.12 0.996 0
26-10-2012 19:50 94.9 % 11.965 3.55 39.581 1.207 0
26-10-2012 19:40 94.7 % 11.912 3.552 32.668 2.263 0

I dati sono presentati in modo automatico a scopo informativo. In seguito a verifica i dati possono subire modifiche o essere invalidati e non riportati negli archivi definitivi.